VLG6DD LFLL-LEBL

Flight info

Callsign VLG6DD
Flight time 1h 4m
Altitude 29000
Route ROMAM A6 MTL DCT DIVKO DCT NILDU DCT BISBA
Aircraft A321/M-SDE3FGHIRWY/LB1

Departure

Time 2026-04-28 16:34
Airport Lyon Saint-Exupéry Airport (LFLL)

Arrival

Time 2026-04-28 17:39
Airport Josep Tarradellas Barcelona-El Prat Airport (LEBL)
Time Latitude Longitude Altitude Speed Heading
2026-04-28 16:07 45.72108 5.08178 797 ft 0 kts 304°
2026-04-28 16:25 45.72107 5.08181 797 ft 2 kts 305°
2026-04-28 16:25 45.72101 5.08189 797 ft 2 kts 275°
2026-04-28 16:26 45.72098 5.08197 796 ft 0 kts 248°
2026-04-28 16:26 45.72099 5.08201 796 ft 4 kts 247°
2026-04-28 16:26 45.72114 5.08248 797 ft 5 kts 240°
2026-04-28 16:26 45.72135 5.08290 798 ft 5 kts 218°
2026-04-28 16:27 45.72160 5.08313 798 ft 0 kts 200°
2026-04-28 16:29 45.72135 5.08302 798 ft 8 kts 198°
2026-04-28 16:30 45.72040 5.08261 797 ft 20 kts 195°
2026-04-28 16:30 45.71967 5.08323 799 ft 14 kts 106°
2026-04-28 16:30 45.71918 5.08470 802 ft 14 kts 147°
2026-04-28 16:30 45.71812 5.08479 802 ft 19 kts 173°
2026-04-28 16:31 45.71657 5.08503 803 ft 26 kts 175°
2026-04-28 16:31 45.71455 5.08524 807 ft 29 kts 175°
2026-04-28 16:31 45.71264 5.08547 811 ft 27 kts 176°
2026-04-28 16:31 45.71118 5.08648 819 ft 21 kts 114°
2026-04-28 16:32 45.71088 5.08800 818 ft 0 kts 105°
2026-04-28 16:32 45.71085 5.08816 818 ft 4 kts 105°
2026-04-28 16:33 45.71069 5.08920 821 ft 18 kts 89°
2026-04-28 16:33 45.71144 5.09020 818 ft 29 kts 12°
2026-04-28 16:33 45.71563 5.08970 814 ft 87 kts 355°
2026-04-28 16:33 45.72444 5.08865 796 ft 163 kts 355°
2026-04-28 16:34 45.73761 5.08705 939 ft 210 kts 354°
2026-04-28 16:34 45.75305 5.08562 1384 ft 234 kts 357°
2026-04-28 16:34 45.76983 5.08466 1985 ft 243 kts 355°
2026-04-28 16:34 45.78657 5.08251 2794 ft 242 kts 353°
2026-04-28 16:35 45.80342 5.07988 3522 ft 245 kts 353°
2026-04-28 16:35 45.82034 5.07750 4216 ft 247 kts 359°
2026-04-28 16:35 45.83717 5.08283 4878 ft 250 kts 29°
2026-04-28 16:35 45.84995 5.09956 5512 ft 253 kts 60°
2026-04-28 16:36 45.85511 5.12359 6241 ft 257 kts 91°
2026-04-28 16:36 45.85093 5.14808 7227 ft 256 kts 122°
2026-04-28 16:36 45.83871 5.16648 8131 ft 259 kts 152°
2026-04-28 16:36 45.82166 5.17460 9020 ft 262 kts 172°
2026-04-28 16:37 45.80353 5.17847 9912 ft 265 kts 173°
2026-04-28 16:37 45.78521 5.18229 10811 ft 268 kts 172°
2026-04-28 16:37 45.76661 5.18700 11672 ft 272 kts 170°
2026-04-28 16:38 45.72906 5.19829 13328 ft 279 kts 169°
2026-04-28 16:38 45.70967 5.20182 14117 ft 283 kts 179°
2026-04-28 16:38 45.68981 5.20090 14770 ft 292 kts 184°
2026-04-28 16:38 45.66865 5.19939 15005 ft 316 kts 183°
2026-04-28 16:39 45.64589 5.19788 15219 ft 339 kts 183°
2026-04-28 16:39 45.62160 5.19633 15444 ft 359 kts 183°
2026-04-28 16:39 45.59640 5.19475 16016 ft 366 kts 183°
2026-04-28 16:39 45.57080 5.19316 16729 ft 370 kts 183°
2026-04-28 16:40 45.54534 5.19156 17393 ft 373 kts 183°
2026-04-28 16:40 45.51922 5.18991 18047 ft 377 kts 183°
2026-04-28 16:40 45.49286 5.18824 18682 ft 381 kts 183°
2026-04-28 16:40 45.46631 5.18656 19309 ft 385 kts 183°
2026-04-28 16:41 45.43905 5.18482 19925 ft 388 kts 183°
2026-04-28 16:41 45.41230 5.18312 20512 ft 392 kts 183°
2026-04-28 16:41 45.38458 5.18136 21097 ft 395 kts 183°
2026-04-28 16:41 45.35736 5.17838 21647 ft 399 kts 187°
2026-04-28 16:42 45.32977 5.17345 22191 ft 402 kts 187°
2026-04-28 16:42 45.30190 5.16834 22728 ft 405 kts 187°
2026-04-28 16:42 45.27374 5.16317 23245 ft 409 kts 187°
2026-04-28 16:42 45.24549 5.15801 23761 ft 412 kts 187°
2026-04-28 16:43 45.21691 5.15282 24260 ft 415 kts 187°
2026-04-28 16:43 45.18817 5.14762 24741 ft 418 kts 187°
2026-04-28 16:43 45.15920 5.14239 25203 ft 421 kts 187°
2026-04-28 16:43 45.12994 5.13713 25655 ft 424 kts 187°
2026-04-28 16:44 45.10019 5.13174 26092 ft 427 kts 188°
2026-04-28 16:44 45.07124 5.12151 26499 ft 430 kts 199°
2026-04-28 16:44 45.04287 5.10784 26896 ft 433 kts 199°
2026-04-28 16:44 45.01438 5.09396 27290 ft 435 kts 199°
2026-04-28 16:45 44.98508 5.07971 27676 ft 438 kts 199°
2026-04-28 16:45 44.95691 5.06607 28028 ft 440 kts 199°
2026-04-28 16:45 44.92905 5.05262 28360 ft 443 kts 199°
2026-04-28 16:45 44.90010 5.03869 28699 ft 445 kts 199°
2026-04-28 16:46 44.87106 5.02474 28983 ft 448 kts 199°
2026-04-28 16:46 44.81165 4.99627 29000 ft 447 kts 199°
2026-04-28 16:47 44.75275 4.96810 29000 ft 448 kts 199°
2026-04-28 16:47 44.69383 4.93999 28999 ft 447 kts 199°
2026-04-28 16:48 44.63479 4.91187 29002 ft 447 kts 199°
2026-04-28 16:48 44.57584 4.88386 29001 ft 447 kts 199°
2026-04-28 16:49 44.51691 4.85593 29000 ft 447 kts 199°
2026-04-28 16:49 44.45784 4.82799 28999 ft 447 kts 199°
2026-04-28 16:50 44.39888 4.80017 28999 ft 447 kts 199°
2026-04-28 16:50 44.33984 4.77236 29000 ft 448 kts 199°
2026-04-28 16:51 44.28284 4.74556 29001 ft 448 kts 199°
2026-04-28 16:51 44.22416 4.71803 29002 ft 448 kts 199°
2026-04-28 16:52 44.16505 4.69036 29000 ft 448 kts 199°
2026-04-28 16:52 44.10593 4.66274 29002 ft 448 kts 199°
2026-04-28 16:53 44.04684 4.63519 28999 ft 447 kts 199°
2026-04-28 16:53 43.98836 4.60799 28998 ft 447 kts 199°
2026-04-28 16:54 43.92960 4.58072 29000 ft 447 kts 199°
2026-04-28 16:54 43.88045 4.55795 29001 ft 447 kts 198°
2026-04-28 16:55 43.82138 4.53064 28999 ft 447 kts 198°
2026-04-28 16:55 43.76234 4.50340 28999 ft 447 kts 198°
2026-04-28 16:56 43.70280 4.47598 29001 ft 447 kts 198°
2026-04-28 16:56 43.64382 4.44887 28999 ft 447 kts 198°
2026-04-28 16:57 43.58472 4.42177 29001 ft 447 kts 198°
2026-04-28 16:57 43.52564 4.39473 28999 ft 447 kts 198°
2026-04-28 16:58 43.46651 4.36773 29000 ft 447 kts 198°
2026-04-28 16:58 43.40745 4.34081 28999 ft 447 kts 198°
2026-04-28 16:59 43.34825 4.31388 28999 ft 447 kts 198°
2026-04-28 16:59 43.28877 4.28688 29002 ft 447 kts 198°
2026-04-28 17:00 43.22965 4.26010 28999 ft 447 kts 198°
2026-04-28 17:00 43.17090 4.23354 28999 ft 447 kts 198°
2026-04-28 17:01 43.11177 4.20687 29001 ft 447 kts 198°
2026-04-28 17:01 43.05266 4.18026 29003 ft 447 kts 198°
2026-04-28 17:02 42.99351 4.15368 29000 ft 448 kts 198°
2026-04-28 17:02 42.93435 4.12715 29000 ft 448 kts 198°
2026-04-28 17:03 42.84557 4.08744 29000 ft 448 kts 198°
2026-04-28 17:03 42.78636 4.06103 29000 ft 448 kts 198°
2026-04-28 17:04 42.69754 4.02150 29002 ft 448 kts 198°
2026-04-28 17:05 42.60883 3.98215 29000 ft 448 kts 198°
2026-04-28 17:06 42.51997 3.94284 29000 ft 448 kts 198°
2026-04-28 17:06 42.43113 3.90366 29003 ft 448 kts 198°
2026-04-28 17:07 42.37197 3.87764 29000 ft 448 kts 198°
2026-04-28 17:07 42.31271 3.85161 29001 ft 448 kts 198°
2026-04-28 17:08 42.25594 3.81777 28999 ft 447 kts 212°
2026-04-28 17:08 42.20697 3.76626 28922 ft 447 kts 221°
2026-04-28 17:09 42.18351 3.73872 28675 ft 446 kts 221°
2026-04-28 17:09 42.16019 3.71153 28432 ft 443 kts 221°
2026-04-28 17:09 42.13687 3.68440 28177 ft 441 kts 221°
2026-04-28 17:09 42.11367 3.65744 27940 ft 440 kts 221°
2026-04-28 17:10 42.09060 3.63055 27655 ft 438 kts 222°
2026-04-28 17:10 42.06840 3.60248 27009 ft 439 kts 221°
2026-04-28 17:10 42.04501 3.57595 26305 ft 438 kts 219°
2026-04-28 17:10 42.02165 3.55040 25921 ft 427 kts 219°
2026-04-28 17:11 41.99883 3.52550 25463 ft 419 kts 219°
2026-04-28 17:11 41.97644 3.50092 24924 ft 413 kts 219°
2026-04-28 17:11 41.95442 3.47663 24410 ft 406 kts 219°
2026-04-28 17:11 41.93276 3.45267 23892 ft 400 kts 219°
2026-04-28 17:12 41.91147 3.42908 23395 ft 394 kts 219°
2026-04-28 17:12 41.89047 3.40584 22877 ft 388 kts 219°
2026-04-28 17:12 41.86980 3.38297 22381 ft 382 kts 219°
2026-04-28 17:12 41.84943 3.36046 21891 ft 377 kts 219°
2026-04-28 17:13 41.82932 3.33825 21402 ft 372 kts 219°
2026-04-28 17:13 41.80946 3.31634 20916 ft 367 kts 219°
2026-04-28 17:13 41.78984 3.29471 20442 ft 365 kts 219°
2026-04-28 17:13 41.77030 3.27319 19960 ft 364 kts 219°
2026-04-28 17:14 41.75082 3.25174 19485 ft 360 kts 219°
2026-04-28 17:14 41.73154 3.23054 19009 ft 357 kts 219°
2026-04-28 17:14 41.71239 3.20950 18536 ft 355 kts 219°
2026-04-28 17:14 41.69338 3.18863 18066 ft 351 kts 219°
2026-04-28 17:15 41.67455 3.16797 17600 ft 350 kts 219°
2026-04-28 17:15 41.65577 3.14737 17129 ft 348 kts 219°
2026-04-28 17:15 41.63715 3.12698 16675 ft 344 kts 219°
2026-04-28 17:15 41.61874 3.10682 16210 ft 343 kts 219°
2026-04-28 17:16 41.60035 3.08671 15738 ft 341 kts 219°
2026-04-28 17:16 41.58142 3.06602 15225 ft 362 kts 219°
2026-04-28 17:16 41.56178 3.04458 14689 ft 363 kts 219°
2026-04-28 17:16 41.54238 3.02341 14172 ft 358 kts 219°
2026-04-28 17:17 41.52334 3.00265 13668 ft 353 kts 219°
2026-04-28 17:17 41.50429 2.98190 13220 ft 347 kts 219°
2026-04-28 17:17 41.48598 2.96197 13071 ft 333 kts 219°
2026-04-28 17:17 41.46839 2.94283 12933 ft 319 kts 219°
2026-04-28 17:18 41.45247 2.92553 12815 ft 305 kts 219°
2026-04-28 17:18 41.43619 2.90785 12693 ft 292 kts 219°
2026-04-28 17:18 41.42105 2.89140 12578 ft 278 kts 219°
2026-04-28 17:18 41.40609 2.87516 12381 ft 269 kts 219°
2026-04-28 17:19 41.39259 2.85874 12070 ft 264 kts 234°
2026-04-28 17:19 41.38530 2.83630 11831 ft 268 kts 263°
2026-04-28 17:19 41.38684 2.81204 11583 ft 267 kts 290°
2026-04-28 17:19 41.39691 2.79159 11328 ft 266 kts 319°
2026-04-28 17:20 41.41331 2.78002 11083 ft 266 kts 347°
2026-04-28 17:20 41.42545 2.77824 10913 ft 266 kts
2026-04-28 17:20 41.44877 2.78779 10587 ft 265 kts 35°
2026-04-28 17:20 41.46295 2.80351 10332 ft 265 kts 41°
2026-04-28 17:21 41.47682 2.81941 10084 ft 261 kts 41°
2026-04-28 17:21 41.49071 2.83504 9830 ft 261 kts 40°
2026-04-28 17:21 41.50440 2.85035 9583 ft 260 kts 40°
2026-04-28 17:22 41.52373 2.88926 9082 ft 258 kts 84°
2026-04-28 17:22 41.52209 2.91278 8829 ft 256 kts 111°
2026-04-28 17:22 41.51285 2.93269 8583 ft 254 kts 137°
2026-04-28 17:23 41.48069 2.94762 8082 ft 249 kts 189°
2026-04-28 17:23 41.46452 2.93998 7829 ft 248 kts 214°
2026-04-28 17:23 41.45123 2.92542 7585 ft 248 kts 221°
2026-04-28 17:23 41.43820 2.91055 7331 ft 246 kts 221°
2026-04-28 17:24 41.42512 2.89588 7081 ft 245 kts 220°
2026-04-28 17:24 41.41210 2.88137 6831 ft 244 kts 220°
2026-04-28 17:24 41.39942 2.86642 6574 ft 243 kts 231°
2026-04-28 17:24 41.39222 2.84638 6330 ft 243 kts 262°
2026-04-28 17:25 41.39372 2.82421 6076 ft 243 kts 292°
2026-04-28 17:25 41.41878 2.79701 5582 ft 244 kts 353°
2026-04-28 17:25 41.43551 2.79948 5336 ft 244 kts 24°
2026-04-28 17:26 41.44923 2.81198 5092 ft 244 kts 41°
2026-04-28 17:26 41.46207 2.82675 4837 ft 242 kts 41°
2026-04-28 17:26 41.47486 2.84127 4588 ft 242 kts 40°
2026-04-28 17:26 41.48769 2.85570 4336 ft 241 kts 40°
2026-04-28 17:27 41.50010 2.87060 4082 ft 239 kts 52°
2026-04-28 17:27 41.50678 2.89052 3998 ft 238 kts 83°
2026-04-28 17:27 41.50518 2.91231 4000 ft 238 kts 114°
2026-04-28 17:27 41.49569 2.93001 4008 ft 237 kts 143°
2026-04-28 17:28 41.48076 2.93908 3964 ft 247 kts 174°
2026-04-28 17:28 41.44728 2.92405 3569 ft 262 kts 223°
2026-04-28 17:28 41.43494 2.90638 3245 ft 261 kts 240°
2026-04-28 17:29 41.42966 2.88371 3042 ft 261 kts 265°
2026-04-28 17:29 41.42788 2.85961 3022 ft 262 kts 264°
2026-04-28 17:29 41.42589 2.83507 3022 ft 261 kts 263°
2026-04-28 17:30 41.42171 2.78693 3023 ft 262 kts 263°
2026-04-28 17:30 41.41746 2.73876 3026 ft 262 kts 263°
2026-04-28 17:30 41.41538 2.71508 3023 ft 262 kts 263°
2026-04-28 17:31 41.41328 2.69102 3022 ft 262 kts 263°
2026-04-28 17:31 41.40909 2.64285 3026 ft 262 kts 263°
2026-04-28 17:32 41.40490 2.59472 3026 ft 262 kts 263°
2026-04-28 17:32 41.40277 2.57035 3021 ft 262 kts 263°
2026-04-28 17:32 41.39865 2.52311 3021 ft 262 kts 263°
2026-04-28 17:33 41.39653 2.49895 3025 ft 262 kts 263°
2026-04-28 17:33 41.39444 2.47513 3025 ft 262 kts 263°
2026-04-28 17:33 41.39230 2.45084 3025 ft 262 kts 263°
2026-04-28 17:33 41.39159 2.44275 3021 ft 261 kts 263°
2026-04-28 17:34 41.38804 2.40247 3024 ft 262 kts 263°
2026-04-28 17:34 41.38590 2.37839 3025 ft 262 kts 263°
2026-04-28 17:34 41.38377 2.35433 3023 ft 262 kts 263°
2026-04-28 17:34 41.38086 2.33150 3026 ft 261 kts 255°
2026-04-28 17:35 41.37512 2.30809 3023 ft 248 kts 248°
2026-04-28 17:35 41.36859 2.28762 2970 ft 234 kts 245°
2026-04-28 17:35 41.36188 2.26799 2660 ft 232 kts 245°
2026-04-28 17:35 41.35751 2.25514 2438 ft 229 kts 245°
2026-04-28 17:36 41.35103 2.23619 2132 ft 220 kts 245°
2026-04-28 17:36 41.34480 2.21797 1847 ft 212 kts 245°
2026-04-28 17:36 41.33883 2.20051 1592 ft 199 kts 245°
2026-04-28 17:36 41.33333 2.18442 1320 ft 188 kts 245°
2026-04-28 17:37 41.32807 2.16904 1080 ft 177 kts 245°
2026-04-28 17:37 41.32319 2.15477 849 ft 160 kts 245°
2026-04-28 17:37 41.31969 2.14455 685 ft 148 kts 245°
2026-04-28 17:37 41.31579 2.13315 514 ft 145 kts 245°
2026-04-28 17:38 41.31158 2.12089 349 ft 145 kts 244°
2026-04-28 17:38 41.30707 2.10792 117 ft 142 kts 245°
2026-04-28 17:38 41.30332 2.09687 15 ft 133 kts 245°
2026-04-28 17:38 41.30042 2.08830 5 ft 54 kts 246°
2026-04-28 17:39 41.29995 2.08684 7 ft 0 kts 246°
2026-04-28 17:39 41.29968 2.08602 7 ft 22 kts 247°
2026-04-28 17:39 41.29722 2.08212 4 ft 0 kts 214°
2026-04-28 17:41 41.29714 2.08205 4 ft 9 kts 214°